sat.trackr.live / text

‹ back to catalog

ONEWEB-0254

NORAD 48972 · 2021-060F

PAYLOAD ACTIVE UNKNOWN

§ Identity

Operator
Country
UK
Launch date
2021-07-01
Launch site
VOSTO
Launch vehicle
Mass (kg)
RCS (m²)

Purposes: comms

External: N2YO · Heavens-Above · Gunter

§ Orbital elements

Epoch: 2026-09-20T03:42:18.811296Z

Period
109.37 min
Inclination
87.9156°
Eccentricity
0.0001850
Mean motion
13.16593349 rev/d
Perigee alt
1,196.4 km
Apogee alt
1,199.2 km
Semi-major
7,575.9 km
B*
2.3035e-5
RAAN
209.9201°
Arg perigee
68.6439°
Mean anomaly
291.4890°
Rev number
25,208

§ Raw data

ONEWEB-02541 48972U 21060F   26263.15438439  .00000022  00000+0  23035-4 0  99952 48972  87.9156 209.9201 0001850  68.6439 291.4890 13.16593349252085

JSON: /api/v1/satellites/48972 · /tle

For live sub-satellite position, see the globe view (requires WebGL).

§ Visibility from observer

Set your observer location to see the next 7 days of passes ≥ 10°. The values pass through the URL so the page stays shareable.

No JS? Fill the form by hand. The geolocation button needs JavaScript.